Location: Tuttlingen
(47.9853°N, 8.8165°E)
Time: 10:39:13
(UTC+01:00)

ISS - Pass Details

Date: 12 January 2018
Orbit: 402 x 406 km, 51.6° (Epoch: 16 January)

Event Time Altitude Azimuth Distance (km) Brightness Sun altitude
Exits shadow 06:24:51 50° 258° (WSW) 524 -3.7 -17.2°
Maximum altitude 06:25:26 62° 208° (SSW) 461 -3.7 -17.1°
Drops below altitude 10° 06:28:40 10° 127° (SE) 1,461 0.0 -16.6°
Sets 06:30:45 0° 124° (SE) 2,319 1.4 -16.3°
